Flag for Russia Weather past 2 weeks in Barnaul, Russia

Now
32 °F

Light snow. Partly sunny.


Feels Like: 22 °F
Forecast: 21 / 28 °F
Wind: 15 mph from Southwest

Location: Barnaul Airport

Current Time: Mar 27, 2015 at 11:24:30 AM

Latest Report: Mar 27, 2015 at 11:00 AM


Visibility: N/A

Pressure: 30.18 "Hg

Humidity: 80%

Dew point: 27 °F

Location of BarnaulLocation

Historic Weather in Barnaul — Graph

°F

Barnaul temperature yesterday

Maximum temperature yesterday: 30 °F (at 5:30 PM)
Minimum temperature yesterday: 16 °F (at 2:00 AM)
Average temperature yesterday: 23 °F

Past Weeks' High & Low Weather Summary

 TemperatureHumidityPressure
High43 °F (Mar 22, 2:30 PM)93% (Mar 12, 11:30 AM)30.42 "Hg (Mar 12, 11:30 AM)
Low16 °F (Mar 26, 2:00 AM)29% (Mar 22, 2:30 PM)29.36 "Hg (Mar 24, 7:00 PM)
Average28 °F79%30.09 "Hg
* Reported Mar 12 10:30 AM — Mar 27 10:30 AM, Barnaul, Weather by CustomWeather, © 2015

Note: Actual official high and low records may vary slightly from our data, if they occured in-between our weather recording intervals... More about our weather records

Advertising

Barnaul weather history for previous 24 hours

 ConditionsComfort  
Time TempWeatherWind HumidityBarometerVisibility
10:30 AM
Fri, Mar 27
30 °FLight snow. Broken clouds.15 mph86%30.18 "HgN/A
10:00 AM30 °FLight snow. Broken clouds.13 mph86%30.18 "HgN/A
9:00 AM28 °FLight snow. Partly sunny.13 mph86%30.18 "HgN/A
8:30 AM28 °FSnow flurries. Partly sunny.15 mph86%30.18 "HgN/A
8:00 AM28 °FSnow flurries. Partly sunny.15 mph93%30.18 "HgN/A
7:30 AM28 °FSnow flurries. Partly sunny.13 mph86%30.18 "Hg4 mi
7:00 AM28 °FSnow flurries. Partly sunny.13 mph86%30.18 "HgN/A
6:30 AM28 °FSnow flurries. Partly sunny.10 mph86%30.18 "HgN/A
6:00 AM28 °FLight snow. Passing clouds.15 mph86%30.18 "HgN/A
5:30 AM28 °FLight snow. Passing clouds.15 mph86%30.18 "HgN/A
5:00 AM28 °FLight snow. Passing clouds.15 mph93%30.15 "HgN/A
4:30 AM28 °FLight snow. Passing clouds.15 mph93%30.15 "HgN/A
4:00 AM28 °FSnow flurries. Passing clouds.15 mph93%30.15 "HgN/A
3:30 AM30 °FSnow flurries. Passing clouds.17 mph86%30.15 "HgN/A
3:00 AM30 °FSnow showers. Passing clouds.15 mph86%30.15 "Hg1 mi
2:30 AM30 °FHeavy snow. Partly cloudy.20 mph86%30.15 "Hg1 mi
2:00 AM30 °FHeavy snow. Passing clouds.15 mph86%30.15 "Hg0 mi
1:30 AM30 °FSnow flurries. Passing clouds.17 mph86%30.15 "Hg5 mi
1:00 AM30 °FLight snow. Partly cloudy.17 mph80%30.15 "HgN/A
12:30 AM30 °FSnow flurries. Partly cloudy.17 mph80%30.15 "HgN/A
12:00 AM30 °FSnow flurries. Passing clouds.17 mph80%30.15 "Hg4 mi
11:30 PM
Thu, Mar 26
30 °FSnow flurries. Partly cloudy.17 mph80%30.15 "Hg6 mi
11:00 PM30 °FLight snow. Partly cloudy.20 mph75%30.15 "HgN/A
10:30 PM30 °FSnow flurries. Partly cloudy.17 mph75%30.15 "HgN/A
10:00 PM30 °FLight snow. Passing clouds.20 mph69%30.15 "HgN/A
9:30 PM30 °FLight snow. Passing clouds.20 mph69%30.15 "HgN/A
9:00 PM30 °FPassing clouds.24 mph64%30.15 "HgN/A
8:30 PM30 °FPassing clouds.24 mph64%30.15 "HgN/A
8:00 PM30 °FLight snow. Passing clouds.24 mph64%30.18 "HgN/A
7:30 PM28 °FLight snow. Passing clouds.22 mph69%30.18 "HgN/A
7:00 PM28 °FLight snow. Passing clouds.24 mph69%30.18 "HgN/A
6:30 PM28 °FLight snow. Partly sunny.24 mph64%30.18 "HgN/A
6:00 PM28 °FLight snow. Mostly cloudy.24 mph64%30.18 "HgN/A
5:30 PM30 °FMore clouds than sun.22 mph59%30.21 "HgN/A
5:00 PM28 °FPartly sunny.22 mph59%30.21 "HgN/A
4:30 PM28 °FPartly sunny.24 mph59%30.21 "HgN/A
4:00 PM28 °FBroken clouds.24 mph55%30.21 "HgN/A
3:30 PM28 °FBroken clouds.20 mph59%30.21 "HgN/A
3:00 PM28 °FBroken clouds.20 mph59%30.21 "HgN/A
2:30 PM27 °FBroken clouds.20 mph59%30.24 "HgN/A
2:00 PM27 °FOvercast.20 mph59%30.24 "HgN/A
1:30 PM27 °FOvercast.20 mph54%30.27 "HgN/A
1:00 PM27 °FOvercast.17 mph59%30.27 "HgN/A
12:30 PM27 °FOvercast.20 mph54%30.30 "HgN/A
12:00 PM25 °FOvercast.20 mph59%30.30 "HgN/A
11:30 AM25 °FPartly sunny.17 mph63%30.30 "HgN/A
11:00 AM25 °FPartly sunny.15 mph63%30.30 "HgN/A
Weather by CustomWeather, © 2015

See weather overviewHow to use our weather pages